EW5860 Weather Reports


time (UTC)temp
C
wind
direction
speed
KPH
gust
KPH
rain 1hr
cm
rain 24hr
cm
rain mn
cm
humidity
%
barometer
mb
20260504220003 22 247 8.0 19.3 0.00 0.00 0.00 37 1009.2
20260504214503 22 219 6.4 22.5 0.00 0.00 0.00 37 1009.2
20260504213002 22 190 6.4 20.9 0.00 0.00 0.00 37 1009.2
20260504211506 22 177 11.3 24.1 0.00 0.00 0.00 37 1009.2
20260504210001 22 224 1.6 16.1 0.00 0.00 0.00 38 1009.2
20260504204627 22 221 4.8 16.1 0.00 0.00 0.00 39 1009.1
20260504203135 22 198 8.0 14.5 0.00 0.00 0.00 37 1009.2
20260504201557 22 167 11.3 25.7 0.00 0.00 0.00 37 1009.5
20260504200055 22 173 6.4 20.9 0.00 0.00 0.00 37 1009.6
20260504194553 22 217 11.3 20.9 0.00 0.00 0.00 36 1009.7
20260504193052 21 178 4.8 19.3 0.00 0.00 0.00 37 1010.0
20260504191553 21 282 8.0 19.3 0.00 0.00 0.00 37 1010.1
20260504190052 21 211 6.4 32.2 0.00 0.00 0.00 37 1010.2
20260504184544 21 152 4.8 20.9 0.00 0.00 0.00 40 1010.5
20260504183042 21 189 8.0 16.1 0.00 0.00 0.00 40 1010.6
20260504181540 20 254 12.9 24.1 0.00 0.00 0.00 38 1011.0
20260504180038 20 88 4.8 19.3 0.00 0.00 0.00 37 1011.2
20260504174538 20 253 6.4 22.5 0.00 0.00 0.00 40 1011.4
20260504173039 20 152 9.7 19.3 0.00 0.00 0.00 38 1011.5
20260504171532 20 184 6.4 22.5 0.00 0.00 0.00 41 1011.8
20260504081512 9 200 6.4 12.9 0.00 0.00 0.00 51 1014.4
20260504044554 10 193 6.4 16.1 0.00 0.00 0.00 49 1014.3
20260504043056 10 209 4.8 16.1 0.00 0.00 0.00 50 1014.3
20260504041548 10 210 9.7 17.7 0.00 0.00 0.00 49 1014.1
20260504040046 10 212 8.0 16.1 0.00 0.00 0.00 50 1014.0
20260504034552 10 217 8.0 16.1 0.00 0.00 0.00 50 1013.8
20260504033043 10 176 6.4 12.9 0.00 0.00 0.00 49 1013.8
20260504031544 10 202 6.4 14.5 0.00 0.00 0.00 49 1013.8
20260504030042 10 206 6.4 11.3 0.00 0.00 0.00 50 1013.7
20260504024547 10 217 3.2 11.3 0.00 0.00 0.00 49 1013.7
20260504023041 11 202 3.2 9.7 0.00 0.00 0.00 48 1013.8
20260504021541 11 224 3.2 9.7 0.00 0.00 0.00 48 1013.8
20260504020042 10 205 1.6 4.8 0.00 0.00 0.00 52 1013.7
20260504014541 10 191 1.6 9.7 0.00 0.00 0.00 49 1013.6
20260504013054 10 156 1.6 8.0 0.00 0.00 0.00 49 1013.5
20260504011538 11 213 1.6 3.2 0.00 0.00 0.00 48 1013.5
20260504010040 11 222 1.6 4.8 0.00 0.00 0.00 46 1013.4
20260504004536 12 221 1.6 6.4 0.00 0.00 0.00 44 1013.3
20260504003036 12 223 1.6 6.4 0.00 0.00 0.00 42 1013.0
20260504001538 13 221 1.6 11.3 0.00 0.00 0.00 40 1012.8
20260504000034 13 223 1.6 6.4 0.00 0.00 0.00 39 1012.7
20260503234634 13 192 1.6 9.7 0.00 0.00 0.00 37 1012.5
20260503233033 15 240 3.2 14.5 0.00 0.00 0.00 36 1012.5
20260503231533 15 196 4.8 16.1 0.00 0.00 0.00 35 1012.4
20260503230041 15 188 8.0 24.1 0.00 0.00 0.00 34 1012.3
20260503224531 15 266 8.0 19.3 0.00 0.00 0.00 33 1012.2
20260503223030 15 261 6.4 14.5 0.00 0.00 0.00 34 1012.2
20260503221531 15 252 1.6 14.5 0.00 0.00 0.00 34 1012.2